SCP
0 0 0 0 0 0 0 0 0 -0 0 0 0 0 0 0 0 0 0 0 0 0 0 0 0 0 0 0 0 0 0 -0 0 0 0 0 0 0 0 0 0 0 0 0 0 0 0
0 0 0 0 0 0 0 0 0 0 -0 0 0 0 0 0 0 0 0 0 0 0 0 0 0 0 0 0 0 0 0 0 0 0 0 0 0 0 0 0 0 0 0 0 0 0 0
0 0 0 0 0 0 0 0 0 -0 0 0 0 0 0 0 0 0 0 -0 -0 -0 -0 -0 -0 0 0 0 0 0 0 0 0 0 0 0 0 0 0 0 0 0 0 0 0 0 0
0 0 0 0 0 0 0 0 0 0 -0 -0 0 0 0 0 0 0 0 0 -0 -0 -0 0 -0 0 0 0 0 0 0 0 0 0 0 0 0 0 0 0 0 0 0 0 0 0 0
0 0 0 0 0 0 0 0 -0 0 0 -0 -0 0 0 0 0 0 0 0 0 0 0 -0 0 0 0 0 0 0 0 0 0 0 0 0 0 0 0 0 0 0 0 0 0 0 0
0 0 0 0 0 0 0 0 0 0 0 -0 0 0 0 0 0 0 0 0 0 0 0 0 0 0 0 0 0 0 0 0 0 0 0 0 0 0 0 0 0 0 0 0 0 0 0
0 0 0 0 0 0 0 0 0 0 0 -0 -0 -0 -0 0 0 0 0 0 0 0 0 0 0 0 0 0 0 0 0 0 0 0 0 0 0 0 0 0 0 0 0 0 0 0 0
0 -0 0 0 0 0 0 0 0 0 0 0 0 -0 -0 -0 0 0 0 0 0 0 0 0 0 0 0 0 0 0 0 0 0 0 0 0 0 0 0 0 0 0 0 0 0 0 0
0 0 0 0 0 0 0 0 0 0 0 0 0 0 0 0 0 -0 0 0 0 0 0 0 0 0 0 0 0 0 0 0 0 0 0 0 0 0 0 0 0 0 -0 -0 -0 0 0
0 0 -0 0 0 0 0 -0 -0 -0 0 0 0 0 0 0 0 0 0 0 0 0 0 0 0 0 0 0 0 0 0 0 0 0 0 0 0 0 0 0 -0 -0 -0 -0 -0 -0 0
0 0 0 0 0 0 0 -0 -0 -0 -0 -0 0 0 0 0 0 0 0 0 0 0 0 0 0 0 0 0 0 0 -0 0 -0 -0 0 0 0 0 -0 0 -0 0 -0 0 -0 0 -0
0 0 -0 -0 0 0 0 -0 -0 -0 -0 0 0 0 0 0 0 0 0 0 0 0 0 0 0 0 0 0 0 0 -0 0 -0 -0 0 0 -0 -0 -0 0 0 0 -0 -0 0 0 0
0 0 -0 -0 0 0 0 0 0 0 0 -0 0 0 0 0 0 0 0 0 0 0 0 0 0 0 0 0 0 0 -0 -0 -0 0 0 -0 -0 0 0 0 -0 -0 -0 0 -0 0 0
0 0 0 -0 -0 -0 0 0 0 0 0 0 0 0 0 0 0 0 0 0 0 0 0 0 0 0 0 0 0 0 0 0 -0 0 -0 0 -0 -0 -0 -0 -0 -0 -0 0 0 0 0
0 0 0 0 -0 -0 -0 0 0 0 0 0 0 0 0 0 0 0 0 0 0 0 0 0 0 0 0 0 0 0 0 0 0 0 0 0 -0 0 -0 -0 0 -0 0 -0 0 0 0
0 0 0 0 0 -0 -0 -0 -0 0 0 0 0 0 0 0 0 0 0 0 0 0 0 0 0 0 0 0 0 0 0 0 0 0 0 0 -0 -0 -0 -0 -0 -0 0 0 0 0 0
0 0 0 0 0 0 0 -0 -0 0 0 0 0 0 0 0 0 0 0 0 0 0 0 0 0 0 0 0 0 0 0 0 0 0 0 0 0 -0 0 -0 0 0 0 0 0 0 0
0 0 0 0 0 0 0 0 0 -0 0 0 0 0 0 0 0 0 0 0 0 0 0 0 0 0 0 0 0 0 0 0 0 0 0 0 0 0 0 0 0 0 0 0 0 0 0
0 0 0 0 0 0 0 0 0 -0 0 0 0 0 0 0 0 0 0 0 0 0 0 0 0 0 0 0 0 0 0 0 0 0 0 0 0 0 0 0 0 0 0 0 0 0 0
0 0 0 0 0 0 0 0 0 0 0 0 0 0 0 0 0 0 0 0 0 0 0 0 0 0 0 0 0 0 0 0 0 0 0 0 0 0 0 0 0 0 -0 0 0 0 0
0 0 0 0 0 0 0 0 0 0 0 0 0 0 0 -0 0 0 0 0 0 0 0 0 0 0 0 0 0 0 0 0 0 0 0 0 0 0 0 0 0 0 0 0 0 0 0
0 0 0 0 0 0 0 0 0 0 0 0 0 0 0 0 -0 -0 -0 -0 -0 0 0 0 0 0 0 0 0 0 0 0 0 0 0 0 0 0 0 0 0 0 0 0 0 0 -0
0 0 0 0 0 0 0 0 0 0 0 0 0 -0 -0 -0 -0 -0 -0 -0 -0 -0 0 0 0 0 0 0 0 0 0 0 0 0 0 0 0 0 0 0 0 0 0 0 0 0 0
0 0 0 0 0 0 0 0 0 0 0 0 0 0 -0 -0 -0 -0 -0 -0 -0 -0 -0 0 0 0 0 0 0 0 0 -0 -0 -0 -0 -0 0 0 -0 -0 -0 -0 0 0 0 0 -0
0 0 0 0 0 0 0 0 0 0 0 0 0 0 -0 -0 -0 -0 -0 -0 -0 -0 -0 -0 -0 0 0 0 -0 -0 0 0 -0 -0 -0 -0 -0 -0 -0 0 -0 -0 -0 -0 0 -0 -0
0 0 0 0 0 0 0 0 0 0 0 0 0 0 0 -0 -0 -0 -0 -0 -0 -0 -0 -0 -0 -0 -0 -0 -0 -0 -0 -0 -0 -0 0 0 0 0 -0 -0 -0 -0 0 0 0 -0 -0
0 0 0 0 0 0 0 0 0 0 0 0 0 0 0 0 -0 -0 -0 -0 -0 -0 -0 -0 -0 -0 -0 -0 -0 -0 -0 -0 -0 -0 -0 -0 -0 -0 -0 -0 -0 -0 0 0 -0 -0 -0
0 0 0 0 0 0 0 0 0 0 0 0 0 0 0 0 0 0 0 0 -0 -0 -0 -0 -0 -0 -0 -0 -0 -0 -0 -0 -0 -0 -0 -0 -0 -0 -0 -0 -0 -0 -0 -0 -0 -0 -0
0 0 0 0 0 0 0 0 0 0 0 0 0 0 0 0 0 0 0 0 -0 -0 -0 -0 -0 -0 -0 0 0 0 0 0 -0 -0 -0 -0 -0 -0 0 -0 -0 -0 -0 -0 -0 -0 -0
Wind_Speed_500mb
75 81 88 94 82 84 78 83 78 63 65 53 37 24 21 27 28 27 25 32 31 25 22 21 36 41 59 19 2 15 21 38 31 21 26 25 21 11 9 3 5 5 7 20 29 36 39
79 90 87 70 81 83 83 82 83 50 43 39 24 14 17 19 21 22 27 30 30 26 21 17 12 62 41 8 4 21 28 34 29 24 30 19 13 12 7 2 2 10 17 30 28 43 35
77 77 72 68 68 74 82 84 85 61 49 17 12 6 10 16 18 24 29 32 28 19 17 22 34 34 29 18 27 25 28 25 17 32 25 18 12 11 8 2 4 15 13 15 25 28 14
76 66 64 63 61 69 70 75 77 68 58 38 20 16 15 21 22 25 27 34 29 22 10 31 44 33 16 34 31 31 22 15 22 20 21 16 13 5 3 1 8 6 3 9 10 5 11
76 65 61 65 65 66 67 70 67 59 52 44 37 27 20 23 23 24 24 28 17 9 17 44 54 23 13 34 34 32 20 24 23 15 10 6 6 3 1 6 7 3 6 11 15 8 6
68 63 59 62 64 66 66 62 59 53 45 38 31 26 25 19 16 18 19 13 26 35 44 58 37 19 21 23 36 34 23 23 19 13 10 5 6 2 5 5 7 8 8 12 16 9 9
64 58 57 60 63 66 65 59 55 50 44 39 32 26 20 15 14 13 14 13 15 12 22 8 20 12 32 32 37 30 25 26 17 7 4 5 2 13 17 14 8 6 11 24 32 31 27
61 55 55 58 61 65 67 61 56 47 43 35 30 25 21 19 12 19 18 21 18 7 18 24 17 21 30 43 23 33 29 14 10 6 4 4 14 21 13 11 16 26 28 32 32 29 11
59 53 52 59 60 64 71 67 61 50 42 31 29 28 28 20 15 18 30 23 22 17 10 12 18 28 27 17 11 31 36 10 7 12 14 9 8 9 15 16 22 27 29 29 27 28 24
59 50 52 59 62 67 77 72 66 54 37 25 24 25 26 12 13 18 30 18 14 13 7 8 8 9 14 16 7 37 39 10 9 14 10 11 15 16 16 18 22 30 22 34 32 21 9
59 50 52 53 60 76 76 73 71 61 39 23 15 18 23 18 14 19 17 12 5 4 8 3 5 19 20 5 27 16 40 9 8 7 6 12 6 12 23 12 23 17 9 15 23 24 24
60 48 47 50 57 70 82 76 73 57 40 27 18 16 20 20 21 20 13 16 9 8 9 5 7 13 11 4 5 20 16 20 9 6 7 17 12 9 8 7 12 12 14 29 27 14 11
59 50 45 47 54 61 75 79 64 62 48 31 22 20 22 22 18 19 7 5 6 10 1 2 12 8 7 5 8 11 11 10 6 6 7 5 9 5 6 11 10 12 8 8 6 4 6
59 55 43 44 47 55 60 62 58 50 48 40 30 30 30 27 20 16 4 5 17 12 9 3 8 11 3 10 4 10 7 7 19 8 5 3 10 12 11 11 4 8 3 4 8 5 6
58 54 45 43 42 43 49 50 47 42 40 31 24 35 51 42 30 14 5 12 7 5 8 8 3 5 3 4 6 8 8 5 7 15 8 5 9 3 16 11 5 4 6 4 7 6 6
55 54 49 45 43 39 39 40 36 37 40 37 34 21 60 37 28 20 10 15 8 8 5 3 3 7 5 3 3 1 4 9 6 12 7 3 9 9 4 11 15 11 5 5 3 6 6
55 54 52 48 46 45 33 28 24 28 39 39 38 12 52 27 22 27 8 8 5 5 4 7 1 5 5 5 2 4 4 5 6 9 15 4 5 10 3 9 5 4 4 5 5 4 3
54 51 51 46 45 44 38 33 23 21 20 30 17 7 47 20 14 8 6 10 13 7 6 3 4 4 6 8 4 3 3 5 2 19 10 11 4 8 11 3 3 4 7 6 3 1 2
51 52 48 46 40 43 46 35 28 25 25 19 8 10 30 28 7 7 10 7 6 16 11 12 10 8 6 5 5 5 7 5 2 6 4 6 4 8 14 10 7 7 12 10 4 2 3
50 51 48 46 42 38 43 44 30 24 19 14 6 6 13 21 16 4 9 9 12 16 8 12 7 5 8 12 12 6 11 5 12 7 2 5 3 2 7 9 7 12 26 14 2 5 2
47 50 50 48 46 41 41 43 35 19 12 8 9 4 5 5 11 8 6 6 10 14 15 26 12 12 2 8 7 9 8 11 7 17 5 4 3 1 5 6 5 4 12 24 15 3 7
44 47 50 48 48 44 46 44 33 16 8 8 8 12 10 5 11 10 11 10 12 12 12 13 8 13 13 8 1 3 3 5 3 11 6 6 2 2 7 10 11 8 18 16 12 12 10
40 43 46 48 48 45 46 39 21 10 7 4 7 22 16 5 4 5 6 9 10 16 3 7 10 7 10 5 17 24 16 13 8 5 5 4 5 5 7 8 11 7 8 8 4 4 6
41 39 41 43 46 46 40 30 20 11 14 4 4 1 7 3 5 1 5 7 8 12 4 17 14 8 15 37 15 8 13 14 6 3 1 3 5 5 6 9 6 9 5 3 3 7 4
41 35 36 38 40 42 36 26 18 13 15 10 3 8 6 7 11 3 9 7 15 18 6 6 7 17 32 19 8 8 7 9 5 4 6 3 6 4 4 4 10 4 7 9 8 8 7
38 34 32 30 32 31 28 21 13 10 11 12 11 8 9 6 9 19 7 6 6 8 12 8 10 18 18 6 8 8 5 4 8 16 3 7 8 7 1 3 8 7 4 5 6 8 10
35 32 30 27 25 23 21 13 10 11 7 6 5 7 5 6 8 15 8 10 4 2 5 10 17 12 20 7 5 0 6 4 8 8 8 6 5 4 4 6 12 8 3 1 7 9 14
34 31 26 26 22 18 13 7 5 7 9 14 14 6 3 6 10 13 13 14 12 7 3 10 7 6 7 7 3 3 2 5 5 7 6 3 1 4 2 2 10 9 7 8 9 3 11
35 31 27 23 20 16 11 6 5 2 3 8 13 13 9 7 8 19 21 17 17 14 8 4 4 6 7 5 3 1 4 3 2 7 5 6 9 4 12 9 7 15 13 13 12 14 14
Wind_Direction_500mb
349 348 349 342 343 345 344 340 311 298 279 254 245 257 276 292 296 305 305 311 314 303 293 266 229 199 186 173 296 78 137 147 176 179 175 169 157 132 146 189 344 218 281 295 297 297 286
359 355 344 347 350 352 352 349 352 296 272 252 228 211 259 301 297 304 306 312 311 306 291 206 196 182 184 119 309 123 157 168 175 184 170 174 183 156 136 112 155 338 316 299 296 283 277
355 350 359 357 358 8 8 8 7 37 66 126 155 109 312 327 318 317 317 316 318 299 275 215 182 156 148 160 164 170 176 159 171 175 168 172 142 150 130 56 359 327 322 306 261 265 246
351 1 3 12 6 2 7 15 16 17 35 42 57 40 1 337 336 331 327 326 325 298 237 191 184 155 124 152 165 170 179 164 160 176 185 188 210 166 168 146 343 327 358 340 287 312 258
1 8 10 11 10 5 6 6 13 21 25 21 17 24 353 343 347 339 331 342 359 53 129 162 161 131 132 153 157 162 174 161 156 150 152 183 169 160 111 119 355 44 259 244 297 231 252
6 7 7 8 11 4 8 4 6 7 12 10 9 3 7 12 349 329 337 29 93 114 136 152 139 109 143 163 159 148 170 155 146 144 144 173 195 72 163 167 225 213 248 266 251 299 190
6 9 8 10 9 4 6 4 3 2 2 4 4 4 10 0 337 336 359 94 122 105 72 120 143 67 151 165 156 152 169 157 137 151 186 233 192 224 219 211 223 322 279 276 276 276 285
6 15 11 14 9 7 4 0 358 357 356 358 3 4 359 349 10 22 25 84 36 112 59 103 82 120 148 147 146 176 168 136 142 206 135 86 251 247 200 213 240 255 269 269 278 258 244
7 13 10 14 10 8 5 3 359 357 353 358 10 16 13 18 61 54 69 73 39 109 73 52 77 111 137 139 111 164 174 177 187 204 203 186 232 52 195 229 234 245 250 266 263 295 272
9 11 9 8 14 13 7 7 5 2 360 344 2 12 25 73 42 65 46 32 11 105 95 12 71 104 138 131 90 178 185 180 217 223 198 240 241 233 245 233 206 266 237 248 267 285 287
8 12 9 8 13 20 13 9 7 1 8 6 357 16 31 62 83 62 17 49 138 136 74 62 38 140 135 189 138 181 185 259 259 217 192 256 266 229 239 245 193 243 268 270 268 269 298
8 11 9 8 12 22 21 9 14 27 26 36 27 38 41 64 53 28 24 93 124 47 72 124 143 148 171 76 101 145 188 227 298 317 255 254 267 287 231 293 239 302 304 278 265 250 251
7 11 12 9 19 21 28 20 24 37 38 39 43 40 40 48 31 38 52 105 70 58 305 37 98 157 121 138 152 171 166 186 229 223 236 262 233 259 218 276 216 206 263 306 332 217 254
5 10 11 14 16 32 34 26 19 28 29 36 47 47 38 29 12 351 331 69 59 41 68 126 108 111 115 181 173 174 156 228 236 221 287 294 321 195 179 227 297 219 221 275 297 306 312
4 5 11 7 27 34 39 34 31 34 30 30 52 41 20 10 359 3 109 54 77 21 27 74 96 183 132 185 214 195 203 234 227 187 212 307 274 226 205 212 196 64 244 232 270 223 239
5 1 7 5 7 28 42 41 37 23 6 357 352 355 12 12 37 43 50 76 71 44 19 157 168 187 177 118 120 253 221 188 228 167 178 9 296 207 280 193 248 237 354 292 255 303 321
1 2 0 8 5 9 22 41 46 17 7 0 359 20 3 2 39 47 48 45 343 321 217 203 309 137 111 154 148 227 236 219 241 147 170 259 273 300 289 200 215 169 265 271 278 248 320
357 1 359 3 6 4 12 10 19 32 29 1 27 30 8 22 48 37 33 337 334 298 359 320 226 75 166 148 179 261 287 233 48 145 182 228 269 279 250 348 25 254 270 183 242 207 349
353 355 358 354 358 359 358 9 3 9 24 21 72 19 13 20 64 349 322 335 318 357 1 17 9 23 14 76 69 45 334 304 310 179 229 175 324 319 346 5 6 9 314 241 222 42 39
348 351 351 353 349 352 352 352 359 3 11 57 70 37 10 45 49 39 353 355 348 353 320 350 330 0 51 39 28 27 347 317 352 2 151 140 93 166 172 246 299 328 346 6 114 80 116
345 347 347 349 349 347 351 350 348 359 355 68 86 110 54 357 354 7 19 348 355 5 346 17 20 19 295 50 28 21 334 335 348 14 82 97 89 45 260 296 298 285 342 22 53 316 48
342 344 345 346 349 349 350 349 346 348 353 21 108 134 112 37 343 8 354 1 12 332 11 343 41 339 22 82 119 241 13 34 328 326 43 347 223 54 305 345 357 357 7 18 32 44 64
337 341 344 342 348 349 350 356 11 22 1 19 109 130 130 27 41 51 323 323 338 348 18 21 311 329 8 349 284 272 253 265 259 308 324 69 106 47 275 348 337 346 331 353 335 37 155
330 337 342 340 346 349 356 360 16 48 62 71 104 118 115 107 86 173 337 328 311 321 264 320 347 353 334 325 310 283 263 262 283 40 116 118 112 127 246 355 20 245 264 235 137 292 309
321 329 339 340 345 352 4 12 40 69 91 103 56 339 324 119 142 22 352 324 325 337 336 297 332 333 334 335 3 351 335 349 332 305 356 80 114 44 101 180 281 237 201 188 186 260 196
311 320 331 337 338 354 358 8 40 72 104 91 78 48 336 125 221 149 133 346 339 328 337 309 326 341 356 55 38 351 308 301 315 333 66 60 65 112 105 76 223 248 240 148 154 271 195
297 307 318 327 329 348 357 4 50 78 85 38 22 8 4 322 203 162 161 158 193 302 271 302 334 345 8 27 37 316 287 274 314 313 335 338 1 143 188 244 289 254 210 100 90 245 178
285 292 305 314 318 333 349 2 46 81 63 30 19 8 345 300 250 223 185 170 167 198 191 312 350 350 11 44 38 299 253 281 329 256 299 252 346 256 153 276 298 180 86 165 239 190 180
274 279 288 301 306 312 309 288 285 281 32 35 33 15 343 283 279 248 244 243 239 219 193 255 269 248 193 96 183 202 297 324 207 291 318 281 189 225 186 229 254 213 235 261 240 213 196
Wind_Speed_850mb
75 81 88 94 82 84 78 83 78 63 65 53 37 24 21 27 28 27 25 32 31 25 22 21 36 41 59 19 2 15 21 38 31 21 26 25 21 11 9 3 5 5 7 20 29 36 39
79 90 87 70 81 83 83 82 83 50 43 39 24 14 17 19 21 22 27 30 30 26 21 17 12 62 41 8 4 21 28 34 29 24 30 19 13 12 7 2 2 10 17 30 28 43 35
77 77 72 68 68 74 82 84 85 61 49 17 12 6 10 16 18 24 29 32 28 19 17 22 34 34 29 18 27 25 28 25 17 32 25 18 12 11 8 2 4 15 13 15 25 28 14
76 66 64 63 61 69 70 75 77 68 58 38 20 16 15 21 22 25 27 34 29 22 10 31 44 33 16 34 31 31 22 15 22 20 21 16 13 5 3 1 8 6 3 9 10 5 11
76 65 61 65 65 66 67 70 67 59 52 44 37 27 20 23 23 24 24 28 17 9 17 44 54 23 13 34 34 32 20 24 23 15 10 6 6 3 1 6 7 3 6 11 15 8 6
68 63 59 62 64 66 66 62 59 53 45 38 31 26 25 19 16 18 19 13 26 35 44 58 37 19 21 23 36 34 23 23 19 13 10 5 6 2 5 5 7 8 8 12 16 9 9
64 58 57 60 63 66 65 59 55 50 44 39 32 26 20 15 14 13 14 13 15 12 22 8 20 12 32 32 37 30 25 26 17 7 4 5 2 13 17 14 8 6 11 24 32 31 27
61 55 55 58 61 65 67 61 56 47 43 35 30 25 21 19 12 19 18 21 18 7 18 24 17 21 30 43 23 33 29 14 10 6 4 4 14 21 13 11 16 26 28 32 32 29 11
59 53 52 59 60 64 71 67 61 50 42 31 29 28 28 20 15 18 30 23 22 17 10 12 18 28 27 17 11 31 36 10 7 12 14 9 8 9 15 16 22 27 29 29 27 28 24
59 50 52 59 62 67 77 72 66 54 37 25 24 25 26 12 13 18 30 18 14 13 7 8 8 9 14 16 7 37 39 10 9 14 10 11 15 16 16 18 22 30 22 34 32 21 9
59 50 52 53 60 76 76 73 71 61 39 23 15 18 23 18 14 19 17 12 5 4 8 3 5 19 20 5 27 16 40 9 8 7 6 12 6 12 23 12 23 17 9 15 23 24 24
60 48 47 50 57 70 82 76 73 57 40 27 18 16 20 20 21 20 13 16 9 8 9 5 7 13 11 4 5 20 16 20 9 6 7 17 12 9 8 7 12 12 14 29 27 14 11
59 50 45 47 54 61 75 79 64 62 48 31 22 20 22 22 18 19 7 5 6 10 1 2 12 8 7 5 8 11 11 10 6 6 7 5 9 5 6 11 10 12 8 8 6 4 6
59 55 43 44 47 55 60 62 58 50 48 40 30 30 30 27 20 16 4 5 17 12 9 3 8 11 3 10 4 10 7 7 19 8 5 3 10 12 11 11 4 8 3 4 8 5 6
58 54 45 43 42 43 49 50 47 42 40 31 24 35 51 42 30 14 5 12 7 5 8 8 3 5 3 4 6 8 8 5 7 15 8 5 9 3 16 11 5 4 6 4 7 6 6
55 54 49 45 43 39 39 40 36 37 40 37 34 21 60 37 28 20 10 15 8 8 5 3 3 7 5 3 3 1 4 9 6 12 7 3 9 9 4 11 15 11 5 5 3 6 6
55 54 52 48 46 45 33 28 24 28 39 39 38 12 52 27 22 27 8 8 5 5 4 7 1 5 5 5 2 4 4 5 6 9 15 4 5 10 3 9 5 4 4 5 5 4 3
54 51 51 46 45 44 38 33 23 21 20 30 17 7 47 20 14 8 6 10 13 7 6 3 4 4 6 8 4 3 3 5 2 19 10 11 4 8 11 3 3 4 7 6 3 1 2
51 52 48 46 40 43 46 35 28 25 25 19 8 10 30 28 7 7 10 7 6 16 11 12 10 8 6 5 5 5 7 5 2 6 4 6 4 8 14 10 7 7 12 10 4 2 3
50 51 48 46 42 38 43 44 30 24 19 14 6 6 13 21 16 4 9 9 12 16 8 12 7 5 8 12 12 6 11 5 12 7 2 5 3 2 7 9 7 12 26 14 2 5 2
47 50 50 48 46 41 41 43 35 19 12 8 9 4 5 5 11 8 6 6 10 14 15 26 12 12 2 8 7 9 8 11 7 17 5 4 3 1 5 6 5 4 12 24 15 3 7
44 47 50 48 48 44 46 44 33 16 8 8 8 12 10 5 11 10 11 10 12 12 12 13 8 13 13 8 1 3 3 5 3 11 6 6 2 2 7 10 11 8 18 16 12 12 10
40 43 46 48 48 45 46 39 21 10 7 4 7 22 16 5 4 5 6 9 10 16 3 7 10 7 10 5 17 24 16 13 8 5 5 4 5 5 7 8 11 7 8 8 4 4 6
41 39 41 43 46 46 40 30 20 11 14 4 4 1 7 3 5 1 5 7 8 12 4 17 14 8 15 37 15 8 13 14 6 3 1 3 5 5 6 9 6 9 5 3 3 7 4
41 35 36 38 40 42 36 26 18 13 15 10 3 8 6 7 11 3 9 7 15 18 6 6 7 17 32 19 8 8 7 9 5 4 6 3 6 4 4 4 10 4 7 9 8 8 7
38 34 32 30 32 31 28 21 13 10 11 12 11 8 9 6 9 19 7 6 6 8 12 8 10 18 18 6 8 8 5 4 8 16 3 7 8 7 1 3 8 7 4 5 6 8 10
35 32 30 27 25 23 21 13 10 11 7 6 5 7 5 6 8 15 8 10 4 2 5 10 17 12 20 7 5 0 6 4 8 8 8 6 5 4 4 6 12 8 3 1 7 9 14
34 31 26 26 22 18 13 7 5 7 9 14 14 6 3 6 10 13 13 14 12 7 3 10 7 6 7 7 3 3 2 5 5 7 6 3 1 4 2 2 10 9 7 8 9 3 11
35 31 27 23 20 16 11 6 5 2 3 8 13 13 9 7 8 19 21 17 17 14 8 4 4 6 7 5 3 1 4 3 2 7 5 6 9 4 12 9 7 15 13 13 12 14 14
Wind_Direction_850mb
349 348 349 342 343 345 344 340 311 298 279 254 245 257 276 292 296 305 305 311 314 303 293 266 229 199 186 173 296 78 137 147 176 179 175 169 157 132 146 189 344 218 281 295 297 297 286
359 355 344 347 350 352 352 349 352 296 272 252 228 211 259 301 297 304 306 312 311 306 291 206 196 182 184 119 309 123 157 168 175 184 170 174 183 156 136 112 155 338 316 299 296 283 277
355 350 359 357 358 8 8 8 7 37 66 126 155 109 312 327 318 317 317 316 318 299 275 215 182 156 148 160 164 170 176 159 171 175 168 172 142 150 130 56 359 327 322 306 261 265 246
351 1 3 12 6 2 7 15 16 17 35 42 57 40 1 337 336 331 327 326 325 298 237 191 184 155 124 152 165 170 179 164 160 176 185 188 210 166 168 146 343 327 358 340 287 312 258
1 8 10 11 10 5 6 6 13 21 25 21 17 24 353 343 347 339 331 342 359 53 129 162 161 131 132 153 157 162 174 161 156 150 152 183 169 160 111 119 355 44 259 244 297 231 252
6 7 7 8 11 4 8 4 6 7 12 10 9 3 7 12 349 329 337 29 93 114 136 152 139 109 143 163 159 148 170 155 146 144 144 173 195 72 163 167 225 213 248 266 251 299 190
6 9 8 10 9 4 6 4 3 2 2 4 4 4 10 0 337 336 359 94 122 105 72 120 143 67 151 165 156 152 169 157 137 151 186 233 192 224 219 211 223 322 279 276 276 276 285
6 15 11 14 9 7 4 0 358 357 356 358 3 4 359 349 10 22 25 84 36 112 59 103 82 120 148 147 146 176 168 136 142 206 135 86 251 247 200 213 240 255 269 269 278 258 244
7 13 10 14 10 8 5 3 359 357 353 358 10 16 13 18 61 54 69 73 39 109 73 52 77 111 137 139 111 164 174 177 187 204 203 186 232 52 195 229 234 245 250 266 263 295 272
9 11 9 8 14 13 7 7 5 2 360 344 2 12 25 73 42 65 46 32 11 105 95 12 71 104 138 131 90 178 185 180 217 223 198 240 241 233 245 233 206 266 237 248 267 285 287
8 12 9 8 13 20 13 9 7 1 8 6 357 16 31 62 83 62 17 49 138 136 74 62 38 140 135 189 138 181 185 259 259 217 192 256 266 229 239 245 193 243 268 270 268 269 298
8 11 9 8 12 22 21 9 14 27 26 36 27 38 41 64 53 28 24 93 124 47 72 124 143 148 171 76 101 145 188 227 298 317 255 254 267 287 231 293 239 302 304 278 265 250 251
7 11 12 9 19 21 28 20 24 37 38 39 43 40 40 48 31 38 52 105 70 58 305 37 98 157 121 138 152 171 166 186 229 223 236 262 233 259 218 276 216 206 263 306 332 217 254
5 10 11 14 16 32 34 26 19 28 29 36 47 47 38 29 12 351 331 69 59 41 68 126 108 111 115 181 173 174 156 228 236 221 287 294 321 195 179 227 297 219 221 275 297 306 312
4 5 11 7 27 34 39 34 31 34 30 30 52 41 20 10 359 3 109 54 77 21 27 74 96 183 132 185 214 195 203 234 227 187 212 307 274 226 205 212 196 64 244 232 270 223 239
5 1 7 5 7 28 42 41 37 23 6 357 352 355 12 12 37 43 50 76 71 44 19 157 168 187 177 118 120 253 221 188 228 167 178 9 296 207 280 193 248 237 354 292 255 303 321
1 2 0 8 5 9 22 41 46 17 7 0 359 20 3 2 39 47 48 45 343 321 217 203 309 137 111 154 148 227 236 219 241 147 170 259 273 300 289 200 215 169 265 271 278 248 320
357 1 359 3 6 4 12 10 19 32 29 1 27 30 8 22 48 37 33 337 334 298 359 320 226 75 166 148 179 261 287 233 48 145 182 228 269 279 250 348 25 254 270 183 242 207 349
353 355 358 354 358 359 358 9 3 9 24 21 72 19 13 20 64 349 322 335 318 357 1 17 9 23 14 76 69 45 334 304 310 179 229 175 324 319 346 5 6 9 314 241 222 42 39
348 351 351 353 349 352 352 352 359 3 11 57 70 37 10 45 49 39 353 355 348 353 320 350 330 0 51 39 28 27 347 317 352 2 151 140 93 166 172 246 299 328 346 6 114 80 116
345 347 347 349 349 347 351 350 348 359 355 68 86 110 54 357 354 7 19 348 355 5 346 17 20 19 295 50 28 21 334 335 348 14 82 97 89 45 260 296 298 285 342 22 53 316 48
342 344 345 346 349 349 350 349 346 348 353 21 108 134 112 37 343 8 354 1 12 332 11 343 41 339 22 82 119 241 13 34 328 326 43 347 223 54 305 345 357 357 7 18 32 44 64
337 341 344 342 348 349 350 356 11 22 1 19 109 130 130 27 41 51 323 323 338 348 18 21 311 329 8 349 284 272 253 265 259 308 324 69 106 47 275 348 337 346 331 353 335 37 155
330 337 342 340 346 349 356 360 16 48 62 71 104 118 115 107 86 173 337 328 311 321 264 320 347 353 334 325 310 283 263 262 283 40 116 118 112 127 246 355 20 245 264 235 137 292 309
321 329 339 340 345 352 4 12 40 69 91 103 56 339 324 119 142 22 352 324 325 337 336 297 332 333 334 335 3 351 335 349 332 305 356 80 114 44 101 180 281 237 201 188 186 260 196
311 320 331 337 338 354 358 8 40 72 104 91 78 48 336 125 221 149 133 346 339 328 337 309 326 341 356 55 38 351 308 301 315 333 66 60 65 112 105 76 223 248 240 148 154 271 195
297 307 318 327 329 348 357 4 50 78 85 38 22 8 4 322 203 162 161 158 193 302 271 302 334 345 8 27 37 316 287 274 314 313 335 338 1 143 188 244 289 254 210 100 90 245 178
285 292 305 314 318 333 349 2 46 81 63 30 19 8 345 300 250 223 185 170 167 198 191 312 350 350 11 44 38 299 253 281 329 256 299 252 346 256 153 276 298 180 86 165 239 190 180
274 279 288 301 306 312 309 288 285 281 32 35 33 15 343 283 279 248 244 243 239 219 193 255 269 248 193 96 183 202 297 324 207 291 318 281 189 225 186 229 254 213 235 261 240 213 196